Location: São Paulo
(23.5507°S, 46.6334°W)
Time: 20:06:40
(UTC-03:00)

Vanguard 2 Rocket - Pass Details

Date: 19 February 2026
Orbit: 553 x 3286 km, 32.9° (Epoch: 11 March)

Event Time Altitude Azimuth Distance (km) Brightness Sun altitude
Exits shadow 04:30:04 11° 241° (WSW) 3,136 9.3 -19.8°
Maximum altitude 04:38:08 62° 161° (SSE) 1,971 8.7 -18.1°
Drops below altitude 10° 04:52:54 10° 82° (E) 5,457 11.8 -14.9°
Sets 04:58:04 0° 78° (ENE) 6,801 12.4 -13.8°
